[[{"header":{"parameterUnit":"m.s-1","parameterCategory":2,"la1":30.2991,"la2":30.254,"lo1":-89.0895,"lo2":-89.0444,"dy":0.0017,"dx":0.0017,"nx":28,"ny":28,"refTime":"2025-03-30T21:00:00:Z","depth":"0","parameterNumber":2,"parameterNumberName":"U-component_of_CURRENTS"},"data":[0,0,0,0,0,0,0,0,0,0,0,0,0,0,0,0,0,0,0,0,0,0,0,0,0,0,0,0,0,0,0,0,0,0,0,0,0,0,0,0,0,0,0,0,0,0,0,0,0,0,0,0,0,0,0,0,0,0,0.3234,0.3235,0,0.3248,0.3247,0.3247,0.3194,0.3194,0.3193,0.3192,0.3176,0.3176,0.3176,0,0,0,0,0,0,0,0,0,0,0,0,0,0.318,0.3181,0.3234,0.3235,0.3236,0.3248,0.3247,0.3247,0.3195,0.3194,0.3192,0.3191,0.3175,0.3176,0.3176,0,0,0,0,0,0,0,0,0,0,0,0,0,0.3193,0.3181,0.3234,0.3216,0.3215,0.3248,0.3247,0.3247,0.3195,0.3193,0.3192,0.3191,0.3175,0.3176,0.3176,0.3209,0,0,0.3178,0.3179,0,0,0,0,0,0,0,0,0.3193,0.3194,0.3218,0.3217,0.3217,0.3224,0.3223,0.3235,0.3195,0.3195,0.3192,0.319,0.3195,0.3193,0.319,0.3208,0.3207,0.3179,0.3179,0.3179,0.3179,0,0,0,0,0,0,0,0.3192,0.3194,0.3233,0.3219,0.3218,0.3214,0.3213,0.3225,0.3197,0.3195,0.3193,0.3206,0.3193,0.3189,0.3189,0.3207,0.3179,0.3179,0.318,0.318,0.3287,0.3289,0,0,0,0,0,0,0.3205,0.3193,0.3232,0.3234,0.3209,0.3217,0.3215,0.3217,0.3197,0.3195,0.3207,0.3204,0.3189,0.3188,0.3188,0.3251,0.3179,0.318,0.318,0.3285,0.3288,0.329,0,0,0,0,0,0,0.3203,0.3208,0.3232,0.322,0.3223,0.322,0.3222,0.3219,0.322,0.3208,0.3203,0.3214,0.3188,0.3187,0.3219,0.3249,0.318,0.3181,0.3282,0.3286,0.3289,0.336,0,0,0,0,0,0,0.3201,0.3207,0.321,0.322,0.3225,0.3266,0.3224,0.322,0.3233,0.3229,0.3212,0.3209,0.3187,0.3218,0.3219,0.3249,0.3181,0.3279,0.3283,0.3288,0.3355,0.3366,0.3375,0,0,0,0,0,0.3199,0.3212,0.321,0.3215,0.323,0.3269,0.327,0.3258,0.3235,0.325,0.3243,0.3209,0.3248,0.3221,0.3222,0.3252,0.3276,0.3282,0.3287,0.335,0.3364,0.3375,0,0,0,0,0,0,0.3197,0.321,0.3206,0.3224,0.3253,0.3263,0.3275,0.3271,0.3275,0.3269,0.3242,0.324,0.3283,0.3266,0.3237,0.33,0.3257,0.3263,0.3304,0.3317,0.3327,0.3303,0.3182,0,0,0,0,0,0.32,0.3206,0.3233,0.325,0.3266,0.3273,0.3286,0.3286,0.3296,0.3295,0.329,0.329,0.3308,0.3309,0.3325,0.3356,0.3354,0.3379,0.3389,0.3397,0.3381,0.341,0.3421,0.3308,0.3308,0.3308,0,0,0.3205,0.3215,0.3218,0.325,0.3264,0.329,0.3275,0.3308,0.3327,0.3296,0.332,0.3334,0.333,0.3369,0.3385,0.3353,0.3441,0.3404,0.3412,0.339,0.3417,0.3428,0.3437,0.3312,0.3311,0.3311,0,0,0.3213,0.323,0.3231,0.3262,0.3299,0.3314,0.333,0.3358,0.3366,0.3405,0.3392,0.3423,0.3442,0.3446,0.3448,0.3527,0.3504,0.3539,0.3556,0.3586,0.3595,0.3602,0.3658,0.367,0.3531,0.3532,0.3532,0,0.321,0.3217,0.3245,0.3264,0.3281,0.3327,0.334,0.3375,0.3411,0.3417,0.3422,0.3465,0.3474,0.3504,0.3535,0.3547,0.3566,0.3506,0.3597,0.3604,0.361,0.3665,0.3677,0.3536,0.3535,0.3535,0.3534,0,0.3215,0.323,0.3245,0.3271,0.3303,0.3334,0.3387,0.3423,0.3444,0.3465,0.3516,0.3547,0.3556,0.3587,0.3583,0.3636,0.3642,0.3616,0.3558,0.3625,0.368,0.3691,0.3541,0.354,0.3539,0.3538,0,0,0.316,0.3226,0.3226,0.3246,0.3304,0.3336,0.3381,0.3423,0.3461,0.3508,0.3538,0.3592,0.3608,0.3613,0.3632,0.3664,0.3757,0.366,0.366,0.3703,0.3848,0.3782,0.3788,0.3745,0.3746,0.3747,0.3885,0,0.314,0.3173,0.3203,0.3244,0.3269,0.3322,0.3368,0.3421,0.3478,0.3539,0.3573,0.3632,0.3621,0.3655,0.368,0.3746,0.3781,0.3723,0.3786,0.3788,0.3709,0.3796,0.366,0.3763,0.3895,0.3897,0.3898,0,0.3106,0.3139,0.3161,0.3236,0.3249,0.3283,0.3355,0.3411,0.3503,0.3551,0.3594,0.364,0.3708,0.3698,0.3796,0.3761,0.3801,0.3844,0.385,0.3757,0.374,0.371,0.3778,0.369,0.3914,0.3913,0.3912,0,0.3042,0.3103,0.3117,0.3142,0.3235,0.3249,0.3304,0.3397,0.3447,0.357,0.3615,0.3692,0.3752,0.3801,0.3876,0.3849,0.3991,0.3961,0.3937,0.3935,0.3812,0.3795,0.3778,0.4015,0.4015,0.4015,0.4014,0,0.2994,0.3012,0.3096,0.3112,0.3138,0.3226,0.327,0.3348,0.346,0.3511,0.3617,0.367,0.378,0.386,0.3908,0.3963,0.401,0.3954,0.3961,0.3839,0.3823,0.3731,0.3693,0.402,0.4019,0.4018,0.4017,0,0.2914,0.2967,0.2994,0.3083,0.3104,0.3129,0.3224,0.3277,0.3405,0.3477,0.3515,0.3678,0.379,0.389,0.4017,0.4004,0.3962,0.4072,0.3938,0.3924,0.3772,0.3743,0.3594,0.3484,0.4066,0.4065,0.4064,0,0.2873,0.2882,0.2947,0.2956,0.2987,0.3039,0.3072,0.3214,0.3274,0.3454,0.348,0.3642,0.3714,0.3901,0.3952,0.4041,0.3928,0.3947,0.3844,0.3752,0.3727,0.3583,0.3491,0.3749,0.3745,0.3743,0.374,0,0.2795,0.2815,0.2839,0.2859,0.2882,0.2908,0.298,0.3018,0.3179,0.3247,0.3365,0.3455,0.365,0.3698,0.3838,0.3867,0.3747,0.3891,0.3824,0.3495,0.3307,0.3208,0.3701,0.3716,0.3719,0.3721,0.3722,0.3723,0.2723,0.2712,0.2741,0.2748,0.2767,0.278,0.2766,0.2862,0.2921,0.3024,0.3185,0.3274,0.3458,0.3635,0.3639,0.3589,0.3566,0.35,0.349,0.3366,0.3177,0.3623,0.3612,0.3613,0.3615,0.3616,0.3617,0,0.263,0.2632,0.2637,0.2629,0.2598,0.2654,0.2693,0.2673,0.2683,0.2836,0.2921,0.3077,0.3169,0.3299,0.3351,0.323,0.3079,0.3148,0.2925,0.2867,0.3306,0.3208,0.307,0.307,0.307,0.307,0.307,0.307,0.2581,0.2547,0.2549,0.2462,0.2452,0.238,0.2373,0.2371,0.2447,0.2509,0.259,0.2732,0.3001,0.3158,0.3086,0.2996,0.2746,0.2615,0.2607,0.2948,0.298,0.301,0.2908,0.271,0.2709,0.204,0.2035,0.2031]},{"header":{"parameterUnit":"m.s-1","parameterCategory":2,"la1":30.2991,"la2":30.254,"lo1":-89.0895,"lo2":-89.0444,"dy":0.0017,"dx":0.0017,"nx":28,"ny":28,"refTime":"2025-03-30T21:00:00:Z","depth":"0","parameterNumber":3,"parameterNumberName":"V-component_of_CURRENTS"},"data":[0,0,0,0,0,0,0,0,0,0,0,0,0,0,0,0,0,0,0,0,0,0,0,0,0,0,0,0,0,0,0,0,0,0,0,0,0,0,0,0,0,0,0,0,0,0,0,0,0,0,0,0,0,0,0,0,0,0,-0.0087,-0.0088,0,-0.0158,-0.0159,-0.0159,-0.0176,-0.0176,-0.0175,-0.0175,-0.0276,-0.0279,-0.0282,0,0,0,0,0,0,0,0,0,0,0,0,0,-0.0029,-0.003,-0.0087,-0.0088,-0.0089,-0.0158,-0.0159,-0.016,-0.0176,-0.0176,-0.0175,-0.0175,-0.0275,-0.0278,-0.0282,0,0,0,0,0,0,0,0,0,0,0,0,0,-0.0072,-0.003,-0.0086,-0.0106,-0.0108,-0.0158,-0.0159,-0.016,-0.0176,-0.0176,-0.0175,-0.0175,-0.0274,-0.0278,-0.0283,-0.0323,0,0,-0.0297,-0.0299,0,0,0,0,0,0,0,0,-0.0069,-0.0073,-0.0102,-0.0105,-0.0108,-0.0158,-0.0176,-0.0216,-0.0177,-0.015,-0.0175,-0.0174,-0.024,-0.0248,-0.0261,-0.0328,-0.0332,-0.0297,-0.03,-0.0302,-0.0303,0,0,0,0,0,0,0,-0.0066,-0.0071,-0.0114,-0.0103,-0.0107,-0.0133,-0.0138,-0.0183,-0.0197,-0.0152,-0.0154,-0.0163,-0.0242,-0.0256,-0.0263,-0.0333,-0.0297,-0.0301,-0.0304,-0.0306,-0.045,-0.0451,0,0,0,0,0,0,-0.0056,-0.0068,-0.0112,-0.0116,-0.0088,-0.0135,-0.014,-0.0142,-0.0196,-0.0204,-0.0164,-0.0164,-0.0249,-0.0258,-0.0267,-0.0301,-0.0302,-0.0306,-0.0309,-0.0449,-0.045,-0.0451,0,0,0,0,0,0,-0.0055,-0.0059,-0.0109,-0.0095,-0.0103,-0.0136,-0.0139,-0.0144,-0.0158,-0.0205,-0.0213,-0.0172,-0.0249,-0.026,-0.0315,-0.0306,-0.0308,-0.0312,-0.0448,-0.0449,-0.0451,-0.0381,0,0,0,0,0,0,-0.0053,-0.0058,-0.0058,-0.0094,-0.0104,-0.0138,-0.0139,-0.0146,-0.0165,-0.0166,-0.0215,-0.0224,-0.0249,-0.0308,-0.032,-0.0312,-0.0316,-0.0446,-0.0448,-0.045,-0.0381,-0.038,-0.0378,0,0,0,0,0,-0.005,-0.005,-0.0057,-0.0063,-0.0101,-0.0139,-0.0146,-0.0167,-0.0166,-0.0176,-0.0213,-0.0222,-0.0329,-0.0313,-0.0326,-0.0319,-0.0445,-0.0448,-0.045,-0.0382,-0.038,-0.0378,0,0,0,0,0,0,-0.003,-0.0054,-0.0062,-0.007,-0.0102,-0.0142,-0.015,-0.0168,-0.0205,-0.0201,-0.0243,-0.0255,-0.03,-0.0331,-0.0313,-0.0372,-0.0387,-0.0392,-0.033,-0.0329,-0.0327,-0.028,-0.032,0,0,0,0,0,-0.0024,-0.0026,-0.0063,-0.007,-0.0082,-0.0116,-0.0134,-0.0149,-0.0186,-0.02,-0.0239,-0.0281,-0.0322,-0.0341,-0.0388,-0.0423,-0.043,-0.0429,-0.0427,-0.0425,-0.0399,-0.0424,-0.042,-0.046,-0.0459,-0.0459,0,0,-0.0019,-0.0032,-0.0034,-0.0066,-0.0086,-0.0092,-0.0124,-0.0146,-0.0149,-0.0208,-0.0229,-0.0283,-0.0335,-0.0371,-0.0392,-0.0391,-0.0418,-0.0428,-0.0425,-0.04,-0.0426,-0.0421,-0.0417,-0.0461,-0.0461,-0.0461,0,0,0.0004,-0.0019,-0.0004,-0.0026,-0.0055,-0.008,-0.0085,-0.0128,-0.0144,-0.0184,-0.0222,-0.0268,-0.0336,-0.0362,-0.0384,-0.0406,-0.0415,-0.0428,-0.0368,-0.0393,-0.0389,-0.0385,-0.0378,-0.0374,-0.0417,-0.0417,-0.0417,0,0.0018,0.0029,-0.0011,-0.0002,-0.0007,-0.0067,-0.0052,-0.0085,-0.0142,-0.0149,-0.0181,-0.027,-0.0323,-0.0344,-0.0352,-0.0395,-0.0403,-0.0365,-0.0386,-0.0383,-0.038,-0.0373,-0.037,-0.0414,-0.0414,-0.0415,-0.0415,0,0.0058,0.0064,0.0067,0.0068,0.005,0.0045,0.0002,-0.0021,-0.0054,-0.0083,-0.0128,-0.0211,-0.025,-0.0287,-0.0324,-0.0333,-0.0341,-0.0384,-0.0377,-0.0371,-0.0365,-0.0363,-0.0409,-0.0411,-0.0411,-0.0412,0,0,0.0111,0.0102,0.0108,0.0124,0.009,0.0084,0.0075,0.0056,0.0075,-0.001,0.0007,-0.0095,-0.0137,-0.0166,-0.023,-0.0257,-0.0256,-0.0303,-0.0306,-0.0268,-0.0282,-0.0278,-0.0275,-0.0301,-0.0301,-0.0301,-0.028,0,0.0163,0.0204,0.0182,0.0216,0.0233,0.0185,0.019,0.0162,0.0129,0.0121,0.0031,0.0005,-0.0092,-0.0107,-0.0152,-0.0226,-0.0248,-0.0255,-0.0316,-0.0317,-0.0293,-0.0272,-0.0256,-0.0236,-0.0278,-0.0277,-0.0277,0,0.0224,0.0243,0.0295,0.0308,0.0314,0.0327,0.0341,0.0334,0.0301,0.0277,0.023,0.0156,0.0102,0.0011,-0.0091,-0.0089,-0.0172,-0.0238,-0.024,-0.0253,-0.0309,-0.0256,-0.023,-0.0389,-0.0273,-0.0274,-0.0274,0,0.0298,0.0324,0.0374,0.0377,0.0381,0.0406,0.0407,0.0392,0.0418,0.0383,0.04,0.0302,0.0279,0.015,0.0002,-0.004,-0.0096,-0.0176,-0.0247,-0.0247,-0.0251,-0.0252,-0.036,-0.0243,-0.0243,-0.0243,-0.0243,0,0.0367,0.0406,0.0419,0.0448,0.0518,0.0489,0.0564,0.0549,0.0567,0.0622,0.0491,0.0524,0.0312,0.024,0.0077,-0.005,-0.0039,-0.0212,-0.0239,-0.0228,-0.0227,-0.0381,-0.0481,-0.0242,-0.0242,-0.0242,-0.0243,0,0.044,0.0446,0.0506,0.0537,0.0559,0.0609,0.0674,0.073,0.0722,0.0795,0.0791,0.0718,0.0621,0.0417,0.0239,0.0077,-0.0155,-0.0126,-0.0079,-0.0102,-0.034,-0.0436,-0.0554,-0.0619,-0.0199,-0.0199,-0.0198,0,0.048,0.0522,0.0585,0.0636,0.066,0.0732,0.0794,0.0812,0.0885,0.0926,0.0983,0.0912,0.0886,0.0638,0.0337,0.0079,-0.0112,-0.0083,-0.0183,-0.0324,-0.0453,-0.0532,-0.0584,-0.0157,-0.0156,-0.0156,-0.0155,0,0.0559,0.0585,0.0634,0.0741,0.0821,0.0908,0.1001,0.1089,0.1124,0.119,0.128,0.1266,0.1021,0.0776,0.0409,0.0208,-0.0191,-0.0082,-0.0252,-0.0434,-0.0504,-0.0587,-0.0182,-0.0151,-0.0152,-0.0152,-0.0152,-0.0152,0.0622,0.0675,0.0749,0.085,0.0943,0.1072,0.1168,0.1279,0.1414,0.1527,0.1513,0.1525,0.1149,0.0652,0.0372,-0.0139,-0.0173,-0.0319,-0.0419,-0.0483,-0.0563,-0.0127,-0.0124,-0.0124,-0.0124,-0.0124,-0.0125,0,0.0699,0.0758,0.0855,0.0977,0.1088,0.1123,0.1298,0.1406,0.1579,0.1684,0.1756,0.1584,0.1125,0.0636,-0.0053,-0.0412,-0.0563,-0.0617,-0.0744,-0.0781,-0.0405,-0.0423,-0.0457,-0.0457,-0.0457,-0.0456,-0.0456,-0.0456,0.0747,0.0847,0.0895,0.108,0.1168,0.1332,0.1438,0.16,0.1716,0.1852,0.1867,0.1844,0.1463,0.0242,-0.0566,-0.0746,-0.1016,-0.1074,-0.1202,-0.0978,-0.0958,-0.094,-0.0981,-0.1131,-0.1132,-0.1529,-0.1533,-0.1537]}],[{"header":{"parameterUnit":"m.s-1","parameterCategory":2,"la1":30.2991,"la2":30.254,"lo1":-89.0895,"lo2":-89.0444,"dy":0.0017,"dx":0.0017,"nx":28,"ny":28,"refTime":"2025-03-30T21:00:00:Z","depth":"2","parameterNumber":2,"parameterNumberName":"U-component_of_CURRENTS"},"data":[0,0,0,0,0,0,0,0,0,0,0,0,0,0,0,0,0,0,0,0,0,0,0,0,0,0,0,0,0,0,0,0,0,0,0,0,0,0,0,0,0,0,0,0,0,0,0,0,0,0,0,0,0,0,0,0,0,0,0.2603,0.2603,0,0.2621,0.2621,0.2622,0.2623,0.2622,0.2622,0.2622,0.2629,0.2629,0.263,0,0,0,0,0,0,0,0,0,0,0,0,0,0.2547,0.2548,0.2603,0.2603,0.2603,0.2621,0.2621,0.2622,0.2623,0.2622,0.2622,0.2621,0.2629,0.2629,0.263,0,0,0,0,0,0,0,0,0,0,0,0,0,0.2571,0.2549,0.2603,0.2604,0.2604,0.2621,0.2621,0.2622,0.2623,0.2622,0.2622,0.2621,0.2628,0.2629,0.263,0.2648,0,0,0.2633,0.2633,0,0,0,0,0,0,0,0,0.257,0.2573,0.2604,0.2604,0.2604,0.2617,0.2604,0.2629,0.2623,0.2618,0.2622,0.2621,0.2623,0.2624,0.2632,0.2648,0.2649,0.2633,0.2633,0.2634,0.2634,0,0,0,0,0,0,0,0.2568,0.2573,0.2612,0.2604,0.2604,0.2596,0.2599,0.2609,0.2625,0.2619,0.2618,0.2617,0.2623,0.2632,0.2632,0.2649,0.2633,0.2634,0.2634,0.2634,0.2748,0.275,0,0,0,0,0,0,0.2564,0.2571,0.2612,0.2613,0.2582,0.2597,0.2601,0.2615,0.2626,0.2626,0.2617,0.2617,0.263,0.2631,0.2633,0.272,0.2634,0.2635,0.2635,0.2745,0.2748,0.2751,0,0,0,0,0,0,0.2563,0.2568,0.2611,0.2589,0.2594,0.2599,0.2615,0.2616,0.2641,0.2624,0.2625,0.2642,0.263,0.2631,0.2654,0.2717,0.2635,0.2636,0.2742,0.2746,0.2749,0.2852,0,0,0,0,0,0,0.2561,0.2568,0.2582,0.259,0.2595,0.2639,0.2615,0.2617,0.2638,0.2638,0.2645,0.2644,0.263,0.2653,0.2655,0.2717,0.2636,0.2739,0.2744,0.2748,0.2845,0.2858,0.287,0,0,0,0,0,0.256,0.2578,0.2583,0.2587,0.2613,0.264,0.2644,0.2645,0.264,0.2663,0.266,0.2645,0.2685,0.2655,0.2657,0.2721,0.2737,0.2743,0.2748,0.284,0.2856,0.2869,0,0,0,0,0,0,0.2559,0.258,0.2585,0.2609,0.2632,0.264,0.2656,0.2661,0.2678,0.2682,0.2663,0.2663,0.2707,0.27,0.2667,0.2769,0.2715,0.2721,0.2784,0.2799,0.2811,0.2797,0.2637,0,0,0,0,0,0.2566,0.2598,0.2608,0.2638,0.2645,0.2658,0.2669,0.2679,0.269,0.2698,0.27,0.2711,0.2732,0.2751,0.2758,0.2811,0.28,0.2859,0.2871,0.2881,0.2873,0.2916,0.2931,0.2769,0.2769,0.2769,0,0,0.258,0.2594,0.2614,0.2642,0.2657,0.2678,0.2665,0.27,0.2731,0.2696,0.2739,0.2746,0.2751,0.2806,0.2829,0.281,0.2926,0.2888,0.2897,0.2883,0.2923,0.2938,0.2952,0.2773,0.2772,0.2772,0,0,0.2611,0.2632,0.2659,0.2677,0.2704,0.2714,0.2729,0.2752,0.2776,0.2817,0.2805,0.2842,0.2873,0.2894,0.2908,0.2994,0.2979,0.3017,0.3082,0.3125,0.3138,0.3149,0.3169,0.3182,0.3037,0.3037,0.3037,0,0.2618,0.2647,0.2673,0.2693,0.2703,0.2732,0.2752,0.2792,0.2824,0.285,0.2843,0.2903,0.2915,0.298,0.3021,0.3023,0.3035,0.3025,0.314,0.3151,0.3161,0.3178,0.319,0.3042,0.3042,0.3041,0.3041,0,0.265,0.2679,0.2697,0.2732,0.2759,0.2785,0.2826,0.2872,0.2901,0.2933,0.3001,0.3017,0.3056,0.3086,0.3083,0.3176,0.3158,0.314,0.3099,0.3183,0.3196,0.3207,0.305,0.3048,0.3047,0.3045,0,0,0.2635,0.2701,0.2704,0.2723,0.2773,0.2795,0.2867,0.2925,0.2971,0.3031,0.3084,0.3154,0.3175,0.3191,0.3207,0.3253,0.335,0.3243,0.3243,0.3256,0.344,0.3363,0.3366,0.3362,0.3364,0.3366,0.3426,0,0.2638,0.2674,0.2711,0.2757,0.2774,0.2827,0.2886,0.2959,0.302,0.3088,0.3148,0.3203,0.3217,0.3247,0.3306,0.3328,0.3382,0.3335,0.3361,0.3361,0.3277,0.3377,0.3132,0.3159,0.3436,0.3438,0.3439,0,0.2626,0.2658,0.2686,0.276,0.2771,0.2812,0.2896,0.2955,0.3072,0.313,0.3215,0.3255,0.3352,0.3337,0.3442,0.3417,0.3445,0.3455,0.3457,0.3348,0.3303,0.3118,0.3168,0.3456,0.3455,0.3454,0.3453,0,0.2566,0.2632,0.2649,0.2668,0.2759,0.2797,0.2854,0.2965,0.3028,0.3157,0.3215,0.3323,0.3379,0.3442,0.3493,0.3485,0.3574,0.356,0.3511,0.3505,0.3279,0.3248,0.3629,0.3628,0.3628,0.3628,0.3628,0,0.2524,0.2542,0.2626,0.2635,0.2681,0.2762,0.2824,0.2913,0.3036,0.31,0.3232,0.3295,0.3412,0.3478,0.3516,0.3548,0.3605,0.3532,0.3524,0.3309,0.3282,0.3514,0.35,0.363,0.363,0.3629,0.3629,0,0.2447,0.2494,0.2522,0.2616,0.2649,0.268,0.2802,0.2852,0.2989,0.3076,0.3123,0.3301,0.3394,0.3476,0.3565,0.3565,0.3597,0.3587,0.3317,0.3277,0.3495,0.3486,0.3557,0.3555,0.3553,0.3551,0.355,0,0.241,0.2414,0.2487,0.2506,0.2548,0.2614,0.266,0.281,0.2865,0.3055,0.3085,0.3235,0.3315,0.3434,0.3454,0.3503,0.3563,0.3283,0.3224,0.3507,0.3493,0.3486,0.348,0.2971,0.2965,0.296,0.2956,0,0.2342,0.2358,0.2382,0.2422,0.2464,0.2509,0.2591,0.2631,0.2784,0.2877,0.2994,0.3082,0.3218,0.3175,0.3246,0.3237,0.3259,0.3187,0.3562,0.3027,0.296,0.2944,0.2956,0.2914,0.2918,0.2921,0.2923,0.2925,0.2281,0.2275,0.2301,0.2332,0.2369,0.2394,0.2397,0.2485,0.2559,0.2661,0.2806,0.286,0.2938,0.2944,0.2876,0.2838,0.3069,0.2945,0.2957,0.2976,0.2898,0.2831,0.2745,0.2748,0.2751,0.2754,0.2756,0,0.2198,0.2205,0.2221,0.2235,0.2223,0.2295,0.2335,0.2315,0.2339,0.2461,0.2548,0.2413,0.2421,0.249,0.2385,0.2413,0.2373,0.2308,0.223,0.2277,0.2317,0.2202,0.1867,0.1863,0.186,0.1857,0,0,0.2156,0.213,0.2135,0.2085,0.21,0.2056,0.2055,0.2052,0.2102,0.2103,0.2123,0.233,0.244,0.2114,0.2095,0.1955,0.209,0.1883,0.2609,0.2566,0.2601,0.2713,0.2593,0,0,0,0,0]},{"header":{"parameterUnit":"m.s-1","parameterCategory":2,"la1":30.2991,"la2":30.254,"lo1":-89.0895,"lo2":-89.0444,"dy":0.0017,"dx":0.0017,"nx":28,"ny":28,"refTime":"2025-03-30T21:00:00:Z","depth":"2","parameterNumber":3,"parameterNumberName":"V-component_of_CURRENTS"},"data":[0,0,0,0,0,0,0,0,0,0,0,0,0,0,0,0,0,0,0,0,0,0,0,0,0,0,0,0,0,0,0,0,0,0,0,0,0,0,0,0,0,0,0,0,0,0,0,0,0,0,0,0,0,0,0,0,0,0,0.0042,0.0042,0,-0.003,-0.0031,-0.0032,-0.0088,-0.0088,-0.0088,-0.0089,-0.017,-0.0172,-0.0174,0,0,0,0,0,0,0,0,0,0,0,0,0,0.0074,0.0074,0.0042,0.0042,0.0041,-0.003,-0.0031,-0.0032,-0.0088,-0.0088,-0.0088,-0.0089,-0.0169,-0.0172,-0.0174,0,0,0,0,0,0,0,0,0,0,0,0,0,0.0035,0.0074,0.0042,0.0007,0.0003,-0.0029,-0.0031,-0.0032,-0.0088,-0.0088,-0.0088,-0.0089,-0.0169,-0.0171,-0.0174,-0.0183,0,0,-0.0183,-0.0184,0,0,0,0,0,0,0,0,0.0037,0.0033,0.0012,0.0009,0.0005,-0.0048,-0.0049,-0.0082,-0.0087,-0.0056,-0.0089,-0.0089,-0.0128,-0.0134,-0.015,-0.0186,-0.019,-0.0183,-0.0185,-0.0186,-0.0187,0,0,0,0,0,0,0,0.004,0.0036,0.0011,0.0012,0.0007,-0.0025,-0.0031,-0.0056,-0.0091,-0.0059,-0.0062,-0.0066,-0.0131,-0.0147,-0.0153,-0.0191,-0.0183,-0.0185,-0.0187,-0.0188,-0.0233,-0.0233,0,0,0,0,0,0,0.0058,0.0039,0.0013,0.0009,0.0023,-0.0025,-0.0032,-0.0033,-0.009,-0.0099,-0.0066,-0.0068,-0.0142,-0.0149,-0.0156,-0.016,-0.0186,-0.0189,-0.019,-0.0234,-0.0233,-0.0233,0,0,0,0,0,0,0.0059,0.0056,0.0016,0.0024,0.0017,-0.0024,-0.0025,-0.0034,-0.0051,-0.0095,-0.0104,-0.0074,-0.0143,-0.0152,-0.0166,-0.0164,-0.019,-0.0192,-0.0234,-0.0234,-0.0233,-0.0174,0,0,0,0,0,0,0.006,0.0057,0.0061,0.0026,0.0018,0.0008,-0.0025,-0.0035,-0.0051,-0.0056,-0.0105,-0.0113,-0.0144,-0.0162,-0.0169,-0.0168,-0.0195,-0.0235,-0.0234,-0.0233,-0.0177,-0.0171,-0.0167,0,0,0,0,0,0.0061,0.0076,0.0061,0.0058,0.0025,0.0009,0.0002,-0.0031,-0.0051,-0.0051,-0.0081,-0.0112,-0.0161,-0.0163,-0.0172,-0.0172,-0.0235,-0.0234,-0.0233,-0.0179,-0.0172,-0.0167,0,0,0,0,0,0,0.0095,0.0071,0.0054,0.0061,0.004,0.0001,-0.0001,-0.0026,-0.0052,-0.0058,-0.0102,-0.0112,-0.0123,-0.0153,-0.0154,-0.0182,-0.0205,-0.0205,-0.016,-0.0155,-0.015,-0.0128,-0.0197,0,0,0,0,0,0.0104,0.0104,0.0077,0.0081,0.0075,0.0036,0.0024,0.0002,-0.0024,-0.0037,-0.0072,-0.0106,-0.0126,-0.0143,-0.0165,-0.0181,-0.0207,-0.0188,-0.0183,-0.0178,-0.0166,-0.0203,-0.02,-0.0229,-0.0229,-0.0229,0,0,0.0115,0.0104,0.0101,0.0087,0.0066,0.0069,0.0027,0.0017,0.0014,-0.0041,-0.0054,-0.0086,-0.0123,-0.0137,-0.0146,-0.0163,-0.0183,-0.0177,-0.0173,-0.0162,-0.0202,-0.0199,-0.0197,-0.0228,-0.0228,-0.0228,0,0,0.0144,0.0131,0.0142,0.0132,0.0113,0.0093,0.0095,0.0059,0.0039,0.0023,-0.0013,-0.0036,-0.0079,-0.0102,-0.0119,-0.01,-0.0149,-0.0116,-0.0083,-0.0119,-0.0117,-0.0116,-0.014,-0.0141,-0.0122,-0.0122,-0.0122,0,0.0161,0.0172,0.0143,0.0156,0.0156,0.0111,0.0128,0.0104,0.0066,0.0056,0.0029,-0.0023,-0.006,-0.0068,-0.0067,-0.0089,-0.0116,-0.0102,-0.0113,-0.0112,-0.0111,-0.0136,-0.0138,-0.0119,-0.0119,-0.0119,-0.012,0,0.0199,0.0208,0.0217,0.0219,0.0215,0.0223,0.0194,0.0182,0.0149,0.0121,0.01,0.0048,0.0017,-0.0004,-0.0033,-0.0046,-0.0067,-0.0096,-0.0126,-0.0105,-0.0133,-0.0136,-0.0114,-0.0116,-0.0116,-0.0117,0,0,0.0237,0.0244,0.0247,0.0262,0.0251,0.0256,0.0256,0.0247,0.0254,0.0198,0.02,0.0146,0.0107,0.0087,0.0041,0.0003,-0.0024,-0.0046,-0.0049,-0.0065,-0.0099,-0.0112,-0.0117,-0.0062,-0.0063,-0.0063,-0.0118,0,0.0277,0.032,0.0309,0.0349,0.0369,0.034,0.0351,0.0332,0.0304,0.0294,0.0228,0.0213,0.0144,0.013,0.008,0.0011,-0.003,-0.0005,-0.012,-0.0123,-0.0134,-0.012,-0.0089,-0.0135,-0.0122,-0.0122,-0.0123,0,0.0319,0.0343,0.0391,0.042,0.0428,0.0443,0.0457,0.0461,0.0431,0.0406,0.0366,0.0315,0.0261,0.0196,0.0078,0.0094,0.0005,-0.0059,-0.0064,-0.0095,-0.0141,-0.0156,-0.0142,-0.0128,-0.0128,-0.0127,-0.0127,0,0.0362,0.0402,0.0445,0.0454,0.0478,0.0493,0.0505,0.0492,0.0513,0.0479,0.0485,0.0402,0.0371,0.0249,0.0105,0.0088,-0.0026,-0.0067,-0.0159,-0.0161,-0.0164,-0.0166,-0.0151,-0.0151,-0.0151,-0.0151,-0.015,0,0.0411,0.0445,0.0469,0.0494,0.0553,0.0546,0.0601,0.0594,0.0605,0.064,0.0547,0.0556,0.038,0.0289,0.0142,-0.001,-0.0003,-0.0142,-0.0175,-0.0143,-0.0141,-0.0162,-0.0163,-0.0153,-0.0152,-0.0152,-0.0151,0,0.0446,0.0462,0.0516,0.0555,0.0575,0.0614,0.0675,0.0715,0.0708,0.0752,0.0748,0.0674,0.0555,0.0378,0.0191,0.0053,-0.0099,-0.0159,-0.0102,-0.0128,-0.0219,-0.0216,-0.026,-0.0261,-0.0262,-0.0263,-0.0263,0,0.0467,0.0499,0.0564,0.0605,0.0625,0.0685,0.0736,0.0762,0.0813,0.0829,0.0861,0.077,0.072,0.0449,0.0194,-0.0048,-0.0093,-0.0185,-0.0215,-0.0202,-0.023,-0.0225,-0.0221,-0.0197,-0.0197,-0.0196,-0.0196,0,0.0509,0.0528,0.0573,0.066,0.0722,0.0802,0.0874,0.0935,0.0969,0.1012,0.1048,0.1016,0.0763,0.0528,0.0192,0.0028,-0.0145,-0.0192,-0.0194,-0.0172,-0.0146,-0.0172,-0.0169,-0.0196,-0.0196,-0.0196,-0.0196,-0.0196,0.0536,0.0574,0.0634,0.0718,0.0798,0.09,0.0972,0.1058,0.1157,0.1225,0.1193,0.1154,0.0875,0.0463,0.0167,-0.0141,-0.0133,-0.0244,-0.0243,-0.0242,-0.0222,-0.0199,-0.0255,-0.0255,-0.0255,-0.0256,-0.0256,0,0.0565,0.0613,0.0691,0.079,0.0881,0.0921,0.1055,0.1127,0.1248,0.132,0.1354,0.1107,0.0846,0.0523,0.0068,-0.0205,-0.0223,-0.0287,-0.0254,-0.0252,-0.0251,-0.0232,-0.0267,-0.0268,-0.0269,-0.027,0,0,0.0581,0.0651,0.0693,0.0837,0.0915,0.104,0.1119,0.123,0.1311,0.1384,0.1383,0.1345,0.0951,0.0621,0.0248,-0.0015,-0.0068,-0.006,-0.0019,0.0067,0.0071,-0.0194,-0.0157,0,0,0,0,0]}],[{"header":{"parameterUnit":"m.s-1","parameterCategory":2,"la1":30.2991,"la2":30.254,"lo1":-89.0895,"lo2":-89.0444,"dy":0.0017,"dx":0.0017,"nx":28,"ny":28,"refTime":"2025-03-30T21:00:00:Z","depth":"4","parameterNumber":2,"parameterNumberName":"U-component_of_CURRENTS"},"data":[0,0,0,0,0,0,0,0,0,0,0,0,0,0,0,0,0,0,0,0,0,0,0,0,0,0,0,0,0,0,0,0,0,0,0,0,0,0,0,0,0,0,0,0,0,0,0,0,0,0,0,0,0,0,0,0,0,0,0.1608,0.1608,0,0.1671,0.1671,0.1672,0.1743,0.1744,0.1745,0.1747,0.1816,0.1817,0.1818,0,0,0,0,0,0,0,0,0,0,0,0,0,0.1534,0.1535,0.1607,0.1608,0.1609,0.1671,0.1671,0.1672,0.1743,0.1744,0.1746,0.1747,0.1816,0.1817,0.1818,0,0,0,0,0,0,0,0,0,0,0,0,0,0.1577,0.1535,0.1607,0.1653,0.1658,0.167,0.1671,0.1672,0.1743,0.1744,0.1746,0.1748,0.1816,0.1817,0.1818,0.1789,0,0,0.1821,0.1822,0,0,0,0,0,0,0,0,0.1574,0.1579,0.1645,0.165,0.1655,0.1702,0.1671,0.1712,0.1742,0.1709,0.1747,0.1749,0.1778,0.1782,0.1788,0.1793,0.1796,0.1821,0.1822,0.1822,0.1823,0,0,0,0,0,0,0,0.1571,0.1577,0.1631,0.1646,0.1652,0.1666,0.1674,0.1679,0.1732,0.1712,0.1718,0.1726,0.1781,0.1787,0.179,0.1797,0.1821,0.1822,0.1823,0.1823,0.1897,0.1899,0,0,0,0,0,0,0.1565,0.1574,0.1629,0.1633,0.162,0.1666,0.1675,0.1684,0.1732,0.1741,0.1725,0.1729,0.1784,0.1789,0.1793,0.1867,0.1822,0.1823,0.1824,0.1896,0.1898,0.1899,0,0,0,0,0,0,0.1563,0.1569,0.1627,0.1606,0.1615,0.1665,0.1675,0.1684,0.1725,0.1742,0.1751,0.176,0.1786,0.1792,0.1833,0.1866,0.1824,0.1825,0.1895,0.1897,0.1898,0.1946,0,0,0,0,0,0,0.1561,0.1568,0.1588,0.1606,0.1616,0.1654,0.1674,0.1684,0.1726,0.1734,0.1774,0.1781,0.1788,0.1831,0.1834,0.1867,0.1826,0.1893,0.1895,0.1898,0.1943,0.1949,0.1955,0,0,0,0,0,0.1558,0.1574,0.1588,0.1596,0.1636,0.1654,0.1661,0.1701,0.1726,0.1744,0.178,0.1781,0.1849,0.1833,0.1836,0.187,0.1892,0.1895,0.1898,0.194,0.1948,0.1955,0,0,0,0,0,0,0.1549,0.1584,0.16,0.1626,0.1648,0.1668,0.1696,0.1715,0.1755,0.1777,0.1791,0.18,0.185,0.1849,0.1831,0.1899,0.1872,0.1876,0.1904,0.1911,0.1917,0.1918,0.1827,0,0,0,0,0,0.1555,0.1583,0.1605,0.1629,0.1645,0.1674,0.1694,0.1718,0.1747,0.177,0.1798,0.183,0.1856,0.1877,0.1896,0.1926,0.1931,0.1952,0.1958,0.1963,0.1966,0.2002,0.2011,0.1909,0.1908,0.1908,0,0,0.1556,0.1581,0.1597,0.1631,0.1656,0.1678,0.1692,0.173,0.1757,0.1768,0.1828,0.1851,0.1868,0.1911,0.1933,0.1921,0.1997,0.1967,0.1971,0.1971,0.2006,0.2016,0.2024,0.191,0.191,0.191,0,0,0.1562,0.1599,0.1621,0.1642,0.1684,0.1704,0.172,0.1757,0.1791,0.1835,0.1857,0.1901,0.1939,0.1962,0.1975,0.2021,0.2026,0.2035,0.2069,0.2104,0.2113,0.212,0.2145,0.2154,0.204,0.204,0.204,0,0.1566,0.1593,0.1628,0.165,0.1676,0.1717,0.174,0.1772,0.182,0.185,0.1867,0.1947,0.1962,0.2012,0.2036,0.2036,0.2055,0.204,0.2112,0.212,0.2127,0.215,0.216,0.2043,0.2043,0.2042,0.2042,0,0.157,0.1607,0.1624,0.167,0.1702,0.173,0.1774,0.1819,0.1868,0.1899,0.1973,0.2003,0.2053,0.2067,0.2067,0.2129,0.2126,0.2114,0.2092,0.214,0.2161,0.2171,0.2047,0.2046,0.2045,0.2044,0,0,0.1544,0.1613,0.1624,0.1653,0.1718,0.174,0.18,0.1857,0.1907,0.1967,0.2028,0.2082,0.2115,0.2131,0.2148,0.2178,0.2243,0.2174,0.2175,0.2196,0.2325,0.2207,0.2206,0.2251,0.2253,0.2254,0.2321,0,0.1541,0.1583,0.1624,0.1677,0.1705,0.1768,0.1821,0.1883,0.1946,0.2015,0.2067,0.2133,0.2135,0.2177,0.2209,0.224,0.227,0.2226,0.2277,0.2278,0.2166,0.2213,0.226,0.2328,0.233,0.2332,0.2333,0,0.1529,0.1565,0.1613,0.1695,0.1716,0.1759,0.1862,0.1914,0.2013,0.2063,0.2139,0.2184,0.226,0.2245,0.233,0.2309,0.2322,0.2334,0.2337,0.2215,0.2177,0.227,0.235,0.2348,0.2347,0.2346,0.2345,0,0.1489,0.156,0.1605,0.1628,0.1722,0.1772,0.1836,0.1937,0.1998,0.2107,0.2168,0.225,0.232,0.2353,0.2403,0.2377,0.2481,0.2442,0.2345,0.2338,0.2402,0.2393,0.2487,0.2487,0.2487,0.2487,0.2486,0,0.1458,0.1499,0.1596,0.1617,0.1688,0.1767,0.1856,0.1927,0.204,0.2111,0.2203,0.2267,0.2355,0.2427,0.2434,0.2431,0.2515,0.2358,0.2349,0.2421,0.2413,0.2409,0.2399,0.2489,0.2488,0.2488,0.2488,0,0.1407,0.1467,0.1525,0.1631,0.1671,0.1728,0.1864,0.192,0.2043,0.214,0.2184,0.2315,0.2403,0.2474,0.254,0.2472,0.2476,0.2451,0.2544,0.2538,0.2295,0.2287,0.2326,0.2322,0.2319,0.2317,0.2314,0,0.1379,0.1406,0.1525,0.1563,0.1618,0.1713,0.1777,0.1908,0.1966,0.2149,0.2182,0.2325,0.2394,0.2399,0.2474,0.2486,0.2455,0.2432,0.233,0.2292,0.228,0.2277,0.2273,0.231,0.2309,0.2308,0.2307,0,0.1326,0.1386,0.1434,0.1515,0.1586,0.1654,0.1754,0.1782,0.1933,0.2062,0.2128,0.2174,0.2273,0.2317,0.2362,0.2359,0.2427,0.2399,0.2403,0.2308,0.2273,0.2263,0.2263,0.2297,0.2298,0.2299,0.23,0,0.1294,0.1315,0.1389,0.1448,0.1533,0.1568,0.1628,0.1696,0.1772,0.196,0.198,0.2126,0.2254,0.2254,0.2292,0.2291,0.2235,0.2133,0.215,0.2163,0.2078,0.2008,0.1948,0,0,0,0,0,0.1248,0.1261,0.1313,0.1364,0.1442,0.1493,0.1602,0.1663,0.1801,0.1801,0.1884,0.1961,0.2019,0.2095,0.206,0.2217,0.2245,0.2165,0.2137,0.2239,0.2251,0.2166,0,0,0,0,0,0,0.1213,0.1261,0.1279,0.1285,0.1305,0.1377,0.1441,0.1533,0.1537,0.1685,0.173,0.1843,0.1934,0.2025,0.2024,0.2046,0.1987,0.2258,0.2252,0.2232,0.2243,0.2253,0.217,0,0,0,0,0]},{"header":{"parameterUnit":"m.s-1","parameterCategory":2,"la1":30.2991,"la2":30.254,"lo1":-89.0895,"lo2":-89.0444,"dy":0.0017,"dx":0.0017,"nx":28,"ny":28,"refTime":"2025-03-30T21:00:00:Z","depth":"4","parameterNumber":3,"parameterNumberName":"V-component_of_CURRENTS"},"data":[0,0,0,0,0,0,0,0,0,0,0,0,0,0,0,0,0,0,0,0,0,0,0,0,0,0,0,0,0,0,0,0,0,0,0,0,0,0,0,0,0,0,0,0,0,0,0,0,0,0,0,0,0,0,0,0,0,0,0.0106,0.0106,0,0.0057,0.0056,0.0056,0.0006,0.0006,0.0005,0.0005,-0.0054,-0.0055,-0.0056,0,0,0,0,0,0,0,0,0,0,0,0,0,0.0121,0.0121,0.0106,0.0106,0.0105,0.0057,0.0056,0.0055,0.0006,0.0006,0.0005,0.0004,-0.0054,-0.0055,-0.0056,0,0,0,0,0,0,0,0,0,0,0,0,0,0.0097,0.0121,0.0106,0.0075,0.0072,0.0057,0.0056,0.0055,0.0006,0.0006,0.0005,0.0004,-0.0053,-0.0055,-0.0056,-0.0049,0,0,-0.0061,-0.0062,0,0,0,0,0,0,0,0,0.0098,0.0096,0.008,0.0078,0.0074,0.0038,0.004,0.002,0.0007,0.003,0.0005,0.0004,-0.0023,-0.0027,-0.0036,-0.0052,-0.0054,-0.0061,-0.0062,-0.0063,-0.0063,0,0,0,0,0,0,0,0.01,0.0098,0.0086,0.008,0.0076,0.0052,0.0048,0.0036,0.0008,0.0028,0.0025,0.0021,-0.0025,-0.0034,-0.0037,-0.0055,-0.0061,-0.0062,-0.0063,-0.0064,-0.006,-0.0059,0,0,0,0,0,0,0.0111,0.01,0.0087,0.0084,0.0085,0.0053,0.0048,0.0049,0.0008,0.0002,0.0022,0.0019,-0.0031,-0.0036,-0.004,-0.0024,-0.0063,-0.0064,-0.0065,-0.0061,-0.006,-0.0059,0,0,0,0,0,0,0.0112,0.0111,0.0089,0.0091,0.0087,0.0054,0.0056,0.0049,0.0041,0.0004,-0.0003,0.0021,-0.0032,-0.0037,-0.004,-0.0027,-0.0065,-0.0066,-0.0062,-0.0061,-0.0059,0.0001,0,0,0,0,0,0,0.0113,0.0111,0.0118,0.0092,0.0087,0.009,0.0056,0.0049,0.004,0.0036,0.0001,-0.0006,-0.0033,-0.0037,-0.0041,-0.003,-0.0068,-0.0063,-0.0061,-0.006,-0.0002,0.0004,0.001,0,0,0,0,0,0.0113,0.0128,0.0118,0.0117,0.0097,0.0091,0.0086,0.0058,0.0041,0.0046,0.0024,-0.0005,-0.0028,-0.0037,-0.0043,-0.0032,-0.0064,-0.0062,-0.006,-0.0005,0.0003,0.001,0,0,0,0,0,0,0.0141,0.0124,0.0113,0.0123,0.0112,0.0083,0.0084,0.0066,0.0052,0.0047,0.001,0.0003,0.0005,-0.0016,-0.0026,-0.0023,-0.0051,-0.005,-0.0008,-0.0001,0.0005,0.001,-0.0069,0,0,0,0,0,0.0151,0.0155,0.0137,0.0145,0.0142,0.0115,0.0109,0.0092,0.0075,0.0067,0.0042,0.0021,0.0011,0.0003,-0.001,-0.0007,-0.0043,-0.0003,0.0003,0.0009,0.001,-0.0025,-0.0023,-0.0051,-0.0051,-0.0051,0,0,0.0164,0.0156,0.0158,0.0151,0.0138,0.0143,0.0109,0.0107,0.0111,0.0065,0.0064,0.0044,0.0019,0.0021,0.002,0.0003,-0.0002,0.0012,0.0016,0.0015,-0.0023,-0.002,-0.0018,-0.0049,-0.005,-0.005,0,0,0.0191,0.0186,0.0196,0.0192,0.0181,0.0168,0.0172,0.015,0.0139,0.014,0.0109,0.01,0.008,0.0065,0.0055,0.009,0.0034,0.0085,0.0116,0.0082,0.0083,0.0084,0.0039,0.0036,0.0085,0.0085,0.0085,0,0.0206,0.0216,0.0199,0.0209,0.0211,0.0185,0.02,0.019,0.017,0.0166,0.0149,0.0122,0.0102,0.0102,0.0113,0.0103,0.0068,0.0089,0.0089,0.0089,0.0089,0.0042,0.0038,0.0088,0.0088,0.0087,0.0087,0,0.0235,0.0246,0.0254,0.0258,0.0262,0.0271,0.026,0.0259,0.0243,0.0226,0.0221,0.0193,0.0173,0.0169,0.0151,0.0147,0.0117,0.0102,0.0068,0.0095,0.0045,0.0039,0.0093,0.0092,0.0091,0.009,0,0,0.0257,0.0271,0.0274,0.0286,0.0289,0.0296,0.031,0.031,0.0316,0.0292,0.0291,0.0276,0.0249,0.0237,0.021,0.0183,0.0154,0.0145,0.0142,0.0097,0.0065,0.0055,0.0047,0.0134,0.0133,0.0133,0.0028,0,0.0282,0.0314,0.0315,0.035,0.0366,0.0357,0.0375,0.0372,0.036,0.0352,0.0317,0.0309,0.0278,0.027,0.0239,0.0177,0.0141,0.0183,0.0048,0.0044,0.0029,0.0042,0.0131,0.0023,0.0021,0.002,0.002,0,0.0304,0.0325,0.0365,0.0396,0.0403,0.0423,0.0442,0.0455,0.044,0.0425,0.0402,0.0369,0.0333,0.0302,0.02,0.0224,0.0152,0.0098,0.0092,0.0058,0.0024,-0.001,0.0008,0.0009,0.001,0.0011,0.0011,0,0.0322,0.0359,0.0394,0.0405,0.0437,0.0455,0.0472,0.0475,0.0493,0.0469,0.0467,0.0411,0.0384,0.0293,0.0185,0.0187,0.006,0.0046,-0.0034,-0.0037,-0.0025,-0.0025,-0.0029,-0.0029,-0.0029,-0.0029,-0.0028,0,0.0344,0.0372,0.0407,0.0427,0.0476,0.0486,0.0531,0.0532,0.0543,0.0565,0.0508,0.0501,0.0381,0.0297,0.0192,0.006,0.006,-0.0029,-0.006,0.0003,0.0007,-0.003,-0.0029,-0.0033,-0.0032,-0.0031,-0.003,0,0.0354,0.0376,0.042,0.0465,0.0486,0.052,0.0578,0.0608,0.0607,0.063,0.0627,0.0561,0.0451,0.0319,0.0162,0.0073,-0.0054,-0.0103,-0.0033,-0.0059,-0.0134,-0.0128,-0.0204,-0.0205,-0.0206,-0.0207,-0.0208,0,0.036,0.0384,0.0449,0.0484,0.0507,0.0563,0.0607,0.0636,0.0669,0.0669,0.068,0.059,0.0527,0.03,0.0153,-0.006,-0.0086,-0.0164,-0.0139,-0.0127,-0.015,-0.0143,-0.0136,-0.0209,-0.0209,-0.021,-0.021,0,0.0372,0.0396,0.0435,0.0508,0.0563,0.0627,0.0687,0.0718,0.0751,0.0751,0.0726,0.0614,0.0484,0.0308,0.0138,-0.0011,-0.0118,-0.0175,-0.0174,-0.0151,-0.0134,-0.0155,-0.0147,-0.0213,-0.0213,-0.0212,-0.0212,0,0.038,0.0407,0.0462,0.0526,0.06,0.0668,0.0702,0.0744,0.0779,0.0782,0.077,0.0635,0.0559,0.0332,0.0179,0.0027,-0.001,-0.006,-0.0065,-0.0064,0.0011,0.0054,0.0008,0,0,0,0,0,0.0381,0.0414,0.0476,0.0549,0.0626,0.0669,0.0748,0.0777,0.0811,0.0804,0.0792,0.0676,0.0455,0.0359,0.0207,0.0146,-0.005,-0.0041,-0.0113,-0.0231,-0.0228,-0.0164,0,0,0,0,0,0,0.0381,0.0435,0.0469,0.0559,0.0611,0.0697,0.075,0.0775,0.0774,0.0784,0.0674,0.0626,0.0413,0.054,0.0199,0.0153,0.0083,-0.0141,-0.0144,-0.0234,-0.023,-0.0227,-0.016,0,0,0,0,0]}]]